Location: Follega
(52.8850°N, 5.7362°E)
Time: 10:32:40
(UTC+00:00)

CARTOSAT-1 - Pass Details

Date: 05 October 2020
Orbit: 616 x 619 km, 97.8° (Epoch: 20 October)

Event Time Altitude Azimuth Distance (km) Brightness Sun altitude
Exits shadow 22:01:15 11° 324° (NW) 1,900 6.7 -39.3°
Drops below altitude 10° 22:01:31 10° 326° (NW) 1,992 6.8 -39.3°
Sets 22:03:58 0° 338° (NNW) 2,903 7.9 -39.5°
